FW8535 Weather Reports


time (UTC)temp
F
wind
direction
speed
knots
gust
knots
rain 1hr
in
rain 24hr
in
rain mn
in
humidity
%
barometer
mb
20260502164034 69 13 6.1 13.0 0.00 0.00 0.00 35 1013.6
20260502163534 69 50 7.8 15.6 0.00 0.00 0.00 34 1013.5
20260502163036 68 63 6.1 15.6 0.00 0.00 0.00 34 1013.4
20260502162533 68 360 6.1 13.9 0.00 0.00 0.00 35 1013.4
20260502162032 67 13 7.0 13.9 0.00 0.00 0.00 36 1013.5
20260502161531 67 22 4.3 10.4 0.00 0.00 0.00 37 1013.5
20260502161030 67 355 5.2 11.3 0.00 0.00 0.00 36 1013.4
20260502160531 66 340 4.3 11.3 0.00 0.00 0.00 38 1013.3
20260502152026 63 101 1.7 9.6 0.00 0.00 0.00 41 1013.5
20260502151524 63 24 3.5 9.6 0.00 0.00 0.00 40 1013.4
20260502151026 62 13 3.5 9.6 0.00 0.00 0.00 41 1013.5
20260502150523 62 27 2.6 8.7 0.00 0.00 0.00 41 1013.6
20260502130558 50 227 2.6 3.5 0.00 0.00 0.00 53 1013.5
20260502123559 43 233 5.2 7.8 0.00 0.00 0.00 59 1013.2
20260502123058 42 227 4.3 6.1 0.00 0.00 0.00 60 1013.5
20260502122557 42 232 2.6 3.5 0.00 0.00 0.00 59 1013.7
20260502122056 42 232 0.9 2.6 0.00 0.00 0.00 58 1013.6
20260502121555 43 230 0.9 2.6 0.00 0.00 0.00 57 1013.8
20260502121054 43 231 0.9 1.7 0.00 0.00 0.00 57 1013.9
20260502120553 43 229 0.0 2.6 0.00 0.00 0.00 56 1013.7
20260502120104 43 210 0.9 6.1 0.00 0.00 0.00 56 1013.6
20260502115049 44 244 1.7 8.7 0.00 0.00 0.00 54 1013.7
20260502114556 45 246 6.1 8.7 0.00 0.00 0.00 53 1013.7
20260502114048 45 248 7.0 8.7 0.00 0.00 0.00 53 1013.7
20260502113547 46 254 4.3 12.2 0.00 0.00 0.00 53 1013.9
20260502113048 45 246 4.3 12.2 0.00 0.00 0.00 54 1013.6
20260502112546 45 246 8.7 10.4 0.00 0.00 0.00 54 1013.5
20260502112046 45 253 3.5 12.2 0.00 0.00 0.00 53 1014.0
20260502111550 46 227 8.7 14.8 0.00 0.00 0.00 52 1013.5
20260502111047 47 229 9.6 18.2 0.00 0.00 0.00 51 1013.4
20260502110544 47 224 12.2 18.2 0.00 0.00 0.00 51 1013.4
20260502110043 47 223 12.2 15.6 0.00 0.00 0.00 51 1013.4
20260502105041 48 208 12.2 20.0 0.00 0.00 0.00 50 1013.3
20260502104547 48 213 12.2 16.5 0.00 0.00 0.00 50 1013.4
20260502104038 47 198 10.4 16.5 0.00 0.00 0.00 50 1013.4
20260502103538 47 209 10.4 16.5 0.00 0.00 0.00 50 1013.5
20260502103038 47 217 9.6 14.8 0.00 0.00 0.00 50 1013.6
20260502102538 47 215 10.4 13.0 0.00 0.00 0.00 50 1013.6
20260502102038 47 219 9.6 12.2 0.00 0.00 0.00 50 1013.6
20260502101538 47 216 10.4 13.0 0.00 0.00 0.00 51 1013.7
20260502101038 47 211 9.6 13.0 0.00 0.00 0.00 50 1013.8
20260502100536 47 209 8.7 10.4 0.00 0.00 0.00 50 1013.7
20260502091036 47 213 7.8 13.0 0.00 0.00 0.00 50 1014.2
20260502090536 47 216 7.8 13.0 0.00 0.00 0.00 50 1014.1
20260502071022 47 206 5.2 7.8 0.00 0.00 0.00 46 1015.4
20260502070527 47 203 5.2 7.8 0.00 0.00 0.00 46 1015.4
20260502070024 47 203 4.3 7.0 0.00 0.00 0.00 46 1015.5
20260502065017 47 207 5.2 7.8 0.00 0.00 0.00 46 1015.5
20260502064516 47 209 5.2 7.8 0.00 0.00 0.00 46 1015.6
20260502064016 47 200 5.2 8.7 0.00 0.00 0.00 46 1015.6
20260502063515 47 205 5.2 8.7 0.00 0.00 0.00 46 1015.6
20260502063015 47 198 5.2 8.7 0.00 0.00 0.00 45 1015.7
20260502062515 47 200 5.2 8.7 0.00 0.00 0.00 45 1015.5
20260502062014 47 187 6.1 8.7 0.00 0.00 0.00 45 1015.7
20260502061513 47 201 6.1 8.7 0.00 0.00 0.00 45 1015.7
20260502061013 47 213 7.0 8.7 0.00 0.00 0.00 45 1015.9
20260502060512 47 217 7.0 8.7 0.00 0.00 0.00 45 1015.8
20260502060012 46 216 6.1 7.8 0.00 0.00 0.00 45 1015.8
20260502055018 47 218 7.0 8.7 0.00 0.00 0.00 44 1015.8
20260502054519 47 208 6.1 7.8 0.00 0.00 0.00 43 1016.0
20260502054017 48 204 6.1 8.7 0.00 0.00 0.00 42 1016.0
20260502053516 49 210 7.0 8.7 0.00 0.00 0.00 42 1016.0
20260502053015 48 217 7.0 8.7 0.00 0.00 0.00 42 1016.1
20260502052514 47 211 6.1 8.7 0.00 0.00 0.00 43 1016.2
20260502052015 46 209 5.2 8.7 0.00 0.00 0.00 44 1016.2
20260502051530 46 210 5.2 7.0 0.00 0.00 0.00 44 1016.2
20260502051014 44 202 5.2 7.0 0.00 0.00 0.00 46 1016.2
20260502050513 42 211 4.3 6.1 0.00 0.00 0.00 48 1016.2
20260502050013 42 213 2.6 4.3 0.00 0.00 0.00 46 1016.5
20260502045011 41 213 2.6 4.3 0.00 0.00 0.00 46 1016.5
20260502044510 41 213 2.6 4.3 0.00 0.00 0.00 47 1016.5
20260502044013 40 213 1.7 3.5 0.00 0.00 0.00 47 1016.7
20260502043509 41 213 1.7 3.5 0.00 0.00 0.00 45 1016.6
20260502043010 41 213 1.7 3.5 0.00 0.00 0.00 44 1016.7
20260502042510 42 210 1.7 3.5 0.00 0.00 0.00 44 1016.7
20260502042010 42 210 2.6 3.5 0.00 0.00 0.00 44 1016.9
20260502041508 44 208 1.7 3.5 0.00 0.00 0.00 42 1016.9
20260502041008 44 208 1.7 2.6 0.00 0.00 0.00 42 1017.0
20260502040509 44 208 1.7 3.5 0.00 0.00 0.00 42 1016.9
20260502040009 45 208 1.7 3.5 0.00 0.00 0.00 41 1016.8
20260502035007 45 208 1.7 3.5 0.00 0.00 0.00 40 1016.8
20260502034507 46 208 1.7 4.3 0.00 0.00 0.00 38 1016.9
20260502034007 47 208 2.6 4.3 0.00 0.00 0.00 40 1017.0
20260502033509 47 208 1.7 4.3 0.00 0.00 0.00 39 1016.9
20260502033005 47 204 2.6 4.3 0.00 0.00 0.00 39 1016.9
20260502032506 48 194 2.6 4.3 0.00 0.00 0.00 38 1016.8
20260502032005 48 194 2.6 4.3 0.00 0.00 0.00 37 1016.8
20260502031505 50 185 2.6 4.3 0.00 0.00 0.00 37 1016.8
20260502031005 50 224 3.5 4.3 0.00 0.00 0.00 35 1016.8
20260502030505 51 224 2.6 4.3 0.00 0.00 0.00 35 1016.8
20260502030005 51 224 2.6 4.3 0.00 0.00 0.00 35 1016.8
20260502025009 51 219 2.6 4.3 0.00 0.00 0.00 35 1016.7
20260502024509 51 218 2.6 3.5 0.00 0.00 0.00 34 1016.7
20260502024010 51 218 2.6 3.5 0.00 0.00 0.00 34 1016.8
20260502023512 52 218 2.6 3.5 0.00 0.00 0.00 34 1016.7
20260502023009 52 215 2.6 3.5 0.00 0.00 0.00 33 1016.6
20260502022510 52 215 2.6 3.5 0.00 0.00 0.00 32 1016.7
20260502022008 52 215 2.6 3.5 0.00 0.00 0.00 33 1016.7
20260502021508 53 215 1.7 3.5 0.00 0.00 0.00 32 1016.6
20260502021008 53 217 1.7 3.5 0.00 0.00 0.00 31 1016.6
20260502020507 55 218 1.7 4.3 0.00 0.00 0.00 30 1016.7
20260502020008 56 218 2.6 4.3 0.00 0.00 0.00 29 1016.7
20260502015012 58 218 3.5 4.3 0.00 0.00 0.00 28 1016.8
20260502014510 60 211 3.5 6.1 0.00 0.00 0.00 27 1016.8
20260502014009 61 209 3.5 6.1 0.00 0.00 0.00 26 1016.8
20260502013505 62 207 3.5 7.0 0.00 0.00 0.00 25 1016.7
20260502013004 63 205 4.3 7.0 0.00 0.00 0.00 24 1016.7
20260502012504 64 212 5.2 8.7 0.00 0.00 0.00 24 1016.8
20260502012006 64 211 5.2 8.7 0.00 0.00 0.00 24 1016.9
20260502011504 64 211 6.1 8.7 0.00 0.00 0.00 23 1016.9
20260502011003 65 207 6.1 13.0 0.00 0.00 0.00 23 1017.1
20260502010503 65 212 8.7 13.0 0.00 0.00 0.00 23 1017.0
20260502010004 65 227 7.0 8.7 0.00 0.00 0.00 22 1016.9
20260502005059 65 209 6.1 10.4 0.00 0.00 0.00 22 1017.0
20260502004559 66 221 7.0 10.4 0.00 0.00 0.00 22 1017.0
20260502004059 66 229 7.8 12.2 0.00 0.00 0.00 22 1017.2
20260502003601 66 224 5.2 9.6 0.00 0.00 0.00 22 1017.2
20260502003057 66 238 7.0 9.6 0.00 0.00 0.00 21 1017.3
20260502002557 66 211 7.0 9.6 0.00 0.00 0.00 21 1017.2
20260502002056 66 200 5.2 7.8 0.00 0.00 0.00 22 1017.4
20260502001558 66 223 4.3 12.2 0.00 0.00 0.00 22 1017.4
20260502001055 67 235 7.0 12.2 0.00 0.00 0.00 21 1017.5
20260502000556 67 209 5.2 10.4 0.00 0.00 0.00 21 1017.3
20260502000055 67 215 7.0 12.2 0.00 0.00 0.00 22 1017.4
20260501235655 66 232 7.0 8.7 0.00 0.00 0.00 22 1017.2
20260501235059 67 225 7.0 8.7 0.00 0.00 0.00 22 1017.3
20260501234600 67 209 3.5 8.7 0.00 0.00 0.00 22 1017.4
20260501234101 66 225 5.2 9.6 0.00 0.00 0.00 21 1017.5
20260501233602 66 225 3.5 13.0 0.00 0.00 0.00 21 1017.6
20260501233103 67 219 7.0 13.0 0.00 0.00 0.00 21 1017.6
20260501232558 67 185 6.1 13.0 0.00 0.00 0.00 21 1017.4
20260501232101 67 246 5.2 9.6 0.00 0.00 0.00 21 1017.6
20260501231605 67 196 2.6 7.0 0.00 0.00 0.00 22 1017.7
20260501231056 67 142 3.5 9.6 0.00 0.00 0.00 22 1017.4
20260501230557 67 217 7.0 9.6 0.00 0.00 0.00 22 1017.6
20260501230058 67 198 4.3 11.3 0.00 0.00 0.00 22 1017.6
20260501225656 67 242 3.5 10.4 0.00 0.00 0.00 22 1017.7
20260501225057 67 256 2.6 10.4 0.00 0.00 0.00 22 1017.7
20260501224555 67 243 5.2 10.4 0.00 0.00 0.00 22 1017.7
20260501224055 67 231 3.5 10.4 0.00 0.00 0.00 22 1017.7
20260501223554 67 238 4.3 9.6 0.00 0.00 0.00 22 1017.9
20260501223056 67 182 4.3 9.6 0.00 0.00 0.00 22 1017.8
20260501222554 66 200 2.6 9.6 0.00 0.00 0.00 23 1017.9
20260501222057 66 213 4.3 10.4 0.00 0.00 0.00 22 1017.9
20260501221553 66 238 7.0 12.2 0.00 0.00 0.00 23 1018.1
20260501221052 67 240 7.0 12.2 0.00 0.00 0.00 22 1018.2
20260501220552 67 229 3.5 8.7 0.00 0.00 0.00 22 1018.3
20260501220052 67 124 4.3 9.6 0.00 0.00 0.00 22 1018.2
20260501215654 67 230 1.7 9.6 0.00 0.00 0.00 23 1018.3
20260501215047 66 242 1.7 7.0 0.00 0.00 0.00 22 1018.4
20260501214559 66 255 3.5 8.7 0.00 0.00 0.00 22 1018.4
20260501214045 66 223 3.5 7.0 0.00 0.00 0.00 22 1018.6
20260501213544 66 221 3.5 6.1 0.00 0.00 0.00 22 1018.5
20260501213049 66 132 2.6 7.0 0.00 0.00 0.00 22 1018.6
20260501212543 66 53 2.6 11.3 0.00 0.00 0.00 22 1018.7
20260501212043 66 155 3.5 13.0 0.00 0.00 0.00 23 1018.7
20260501211543 66 201 7.8 13.0 0.00 0.00 0.00 23 1018.8
20260501211042 66 221 6.1 9.6 0.00 0.00 0.00 23 1019.0
20260501210542 66 270 2.6 6.1 0.00 0.00 0.00 23 1019.0
20260501210041 66 238 2.6 10.4 0.00 0.00 0.00 23 1018.8
20260501205641 65 198 1.7 9.6 0.00 0.00 0.00 22 1018.9
20260501205040 65 198 4.3 9.6 0.00 0.00 0.00 23 1019.0
20260501204540 66 219 6.1 9.6 0.00 0.00 0.00 23 1019.1
20260501204040 65 242 5.2 8.7 0.00 0.00 0.00 24 1019.1
20260501203537 65 123 4.3 7.0 0.00 0.00 0.00 23 1019.1
20260501203037 64 58 1.7 7.8 0.00 0.00 0.00 25 1019.2
20260501202536 64 124 2.6 11.3 0.00 0.00 0.00 24 1019.3
20260501202036 64 136 6.1 11.3 0.00 0.00 0.00 24 1019.2
20260501201542 64 159 3.5 13.9 0.00 0.00 0.00 25 1019.3
20260501201038 64 137 7.0 13.0 0.00 0.00 0.00 25 1019.4
20260501200536 64 92 6.1 13.0 0.00 0.00 0.00 25 1019.2
20260501200035 64 150 6.1 10.4 0.00 0.00 0.00 25 1019.3
20260501195039 64 112 1.7 7.8 0.00 0.00 0.00 26 1019.4
20260501194548 63 186 4.3 7.8 0.00 0.00 0.00 26 1019.4
20260501194038 63 226 2.6 9.6 0.00 0.00 0.00 26 1019.4
20260501193542 63 222 7.0 9.6 0.00 0.00 0.00 26 1019.5
20260501193037 63 251 4.3 11.3 0.00 0.00 0.00 27 1019.5
20260501192540 63 222 5.2 11.3 0.00 0.00 0.00 26 1019.6
20260501192037 64 194 6.1 11.3 0.00 0.00 0.00 25 1019.6
20260501191536 64 181 6.1 11.3 0.00 0.00 0.00 26 1019.6
20260501191035 63 141 2.6 8.7 0.00 0.00 0.00 26 1019.7
20260501190534 63 225 3.5 8.7 0.00 0.00 0.00 28 1019.7
20260501190036 63 199 3.5 8.7 0.00 0.00 0.00 26 1019.6
20260501185635 63 117 3.5 8.7 0.00 0.00 0.00 27 1019.9
20260501185037 63 220 3.5 10.4 0.00 0.00 0.00 27 1019.7
20260501184537 62 251 3.5 10.4 0.00 0.00 0.00 26 1019.9
20260501184037 63 195 5.2 13.0 0.00 0.00 0.00 26 1020.0
20260501183536 62 174 3.5 13.9 0.00 0.00 0.00 27 1019.9
20260501183036 62 124 1.7 9.6 0.00 0.00 0.00 27 1020.0
20260501182535 62 150 3.5 9.6 0.00 0.00 0.00 27 1020.1
20260501182035 62 25 4.3 10.4 0.00 0.00 0.00 27 1020.0
20260501181536 62 89 6.1 13.0 0.00 0.00 0.00 27 1019.9
20260501181034 62 109 5.2 12.2 0.00 0.00 0.00 28 1020.0
20260501180534 62 152 8.7 12.2 0.00 0.00 0.00 27 1020.0